sat.trackr.live / text

‹ back to catalog

STARLINK-34117

NORAD 64040 · 2025-102U

PAYLOAD ACTIVE UNKNOWN

§ Identity

Operator
Country
US
Launch date
2025-05-16
Launch site
AFWTR
Launch vehicle
Mass (kg)
RCS (m²)

Purposes: comms

External: N2YO · Heavens-Above · Gunter

§ Orbital elements

Epoch: 2026-05-24T19:50:31.445376Z

Period
96.11 min
Inclination
70.0008°
Eccentricity
0.0002630
Mean motion
14.98341456 rev/d
Perigee alt
570.2 km
Apogee alt
573.8 km
Semi-major
6,950.2 km
B*
-2.4262e-5
RAAN
282.6037°
Arg perigee
271.8299°
Mean anomaly
88.2559°
Rev number
5,729

§ Raw data

STARLINK-341171 64040U 25102U   26144.82675284 -.00000382  00000+0 -24262-4 0  99972 64040  70.0008 282.6037 0002630 271.8299  88.2559 14.98341456 57293

JSON: /api/v1/satellites/64040 · /tle

For live sub-satellite position, see the globe view (requires WebGL).

§ Visibility from observer

Set your observer location to see the next 7 days of passes ≥ 10°. The values pass through the URL so the page stays shareable.

No JS? Fill the form by hand. The geolocation button needs JavaScript.